Rockport, TX

11:57 PM CST on December 11, 2019 (GMT -0600)
Aransas County

Weather History for KRKP - November, 2019

Change the Weather History Date:

Tuesday, November 19, 2019

  Actual Average Record
Temperature  
Mean Temperature 66 °F -  
Max Temperature 78 °F 72 °F 85 °F (1983)
Min Temperature 55 °F 58 °F 36 °F (1959)
Cooling Degree Days 2    
Growing Degree Days 16 (Base 50)    
Moisture  
Dew Point 59 °F    
Average Humidity 83    
Maximum Humidity 93    
Minimum Humidity 58    
Precipitation  
Precipitation 0.00 in - - ()
Sea Level Pressure  
Sea Level Pressure 29.97 in    
Wind  
Wind Speed 4 mph (ESE)    
Max Wind Speed 9 mph    
Max Gust Speed -    
Visibility 5 miles    
Events Fog    
Averages and records for this station are not official NWS values.
T = Trace of Precipitation, MM = Missing Value Source: NWS Daily Summary

Daily Weather History Graph

Daily Weather History Graph

Search for Another Location

Airport or City:

Astronomy

Nov. 19, 2019 Rise Set
Actual Time 6:52 AM CST 5:33 PM CST
Civil Twilight 6:27 AM CST 5:58 PM CST
Nautical Twilight 5:59 AM CST 6:27 PM CST
Astronomical Twilight 5:31 AM CST 6:55 PM CST
Moon No Moon Rise 1:07 PM CST (11/19)
Length of Visible Light 11h 31m
Length of Day
10h 41m
Waning Gibbous, 51% of the Moon is Illuminated
Nov 19
Waning Gibbous
Nov 19
Last Quarter
Nov 26
New
Dec 4
First Quarter
Dec 11
Full

Hourly Weather History & Observations

Time (CST) Temp. Dew Point Humidity Pressure Visibility Wind Dir Wind Speed Gust Speed Precip Events Conditions
12:10 AM 59.0 °F 57.0 °F 93% 29.95 in 1.8 mi SE 3.5 mph - N/A   Clear
12:12 AM 60.1 °F 57.0 °F 90% 29.95 in 0.8 mi SE 3.5 mph - N/A   Clear
12:53 AM 59.0 °F 55.9 °F 90% 29.95 in 0.8 mi SE 3.5 mph - N/A   Clear
1:36 AM 57.0 °F 55.0 °F 93% 29.94 in 0.2 mi SE 3.5 mph - N/A Fog Fog
1:53 AM 57.0 °F 53.1 °F 87% 29.95 in 0.2 mi ESE 3.5 mph - N/A Fog Fog
2:53 AM 57.0 °F 54.0 °F 89% 29.95 in 0.2 mi Calm Calm - N/A Fog Fog
3:53 AM 55.9 °F 53.1 °F 90% 29.96 in 0.2 mi NW 4.6 mph - N/A Fog Fog
4:53 AM 55.9 °F 53.1 °F 90% 29.96 in 0.2 mi NNW 3.5 mph - N/A Fog Fog
5:53 AM 55.0 °F 53.1 °F 93% 29.97 in 0.2 mi NNW 3.5 mph - N/A Fog Fog
6:53 AM 55.0 °F 52.0 °F 89% 29.99 in 0.2 mi Calm Calm - N/A Fog Fog
7:53 AM 57.9 °F 55.0 °F 90% 30.01 in 0.2 mi Calm Calm - N/A Fog Fog
8:21 AM 61.0 °F 57.9 °F 90% 30.01 in 1.5 mi East 3.5 mph - N/A   Mostly Cloudy
8:23 AM 61.0 °F 57.9 °F 90% 30.01 in 2.5 mi East 3.5 mph - N/A   Scattered Clouds
8:30 AM 62.1 °F 59.0 °F 90% 30.01 in 4.0 mi East 3.5 mph - N/A   Scattered Clouds
8:53 AM 62.1 °F 59.0 °F 90% 30.02 in 5.0 mi East 3.5 mph - N/A   Clear
9:53 AM 68.0 °F 61.0 °F 78% 30.03 in 8.0 mi East 5.8 mph - N/A   Clear
10:53 AM 73.9 °F 63.0 °F 68% 30.02 in 10.0 mi ESE 6.9 mph - N/A   Clear
11:53 AM 75.9 °F 62.1 °F 62% 30.00 in 10.0 mi ESE 8.1 mph - N/A   Clear
12:53 PM 77.0 °F 62.1 °F 60% 29.98 in 10.0 mi SE 6.9 mph - N/A   Clear
1:53 PM 78.1 °F 62.1 °F 58% 29.96 in 10.0 mi ESE 6.9 mph - N/A   Clear
2:53 PM 77.0 °F 62.1 °F 60% 29.95 in 10.0 mi ESE 8.1 mph - N/A   Clear
3:53 PM 75.0 °F 63.0 °F 66% 29.94 in 10.0 mi ESE 9.2 mph - N/A   Clear
4:53 PM 71.1 °F 62.1 °F 73% 29.94 in 10.0 mi East 8.1 mph - N/A   Clear
5:53 PM 66.9 °F 62.1 °F 84% 29.95 in 10.0 mi East 6.9 mph - N/A   Partly Cloudy
6:32 PM 66.0 °F 61.0 °F 84% 29.95 in 8.0 mi East 6.9 mph - N/A   Scattered Clouds
6:53 PM 66.0 °F 62.1 °F 87% 29.96 in 8.0 mi ESE 6.9 mph - N/A   Clear
7:53 PM 66.0 °F 62.1 °F 87% 29.97 in 5.0 mi SE 6.9 mph - N/A   Clear
8:53 PM 68.0 °F 63.0 °F 84% 29.96 in 8.0 mi SSE 5.8 mph - N/A   Clear
9:53 PM 68.0 °F 63.0 °F 84% 29.97 in 7.0 mi SSE 6.9 mph - N/A   Clear
10:53 PM 68.0 °F 63.0 °F 84% 29.97 in 7.0 mi SSE 5.8 mph - N/A   Clear
11:53 PM 66.9 °F 63.0 °F 87% 29.96 in 6.0 mi SSE 5.8 mph - N/A   Clear